Погода в Новомелково

Россия / Тверская область     56°40′35″N   36°23′39″E
темп.,
°C
ветер,
м/с
пор.,
м/с
влажн.,
%
обл.,
%
осадки,
мм/ч
давл.,
гПа
погр.,
м
20 июня, вс
вс2000:00+17юз22821 0.0 102335
03:00+15юз23910 0.0 102345
06:00+18юз24815 0.0 1023123
09:00+24юз23600 0.0 1022497
12:00+28юз34430 0.0 10221428
15:00+29юз34394 0.0 10201684
18:00+28юз34500 0.0 10201178
21:00+22ююз22740 0.0 102019
21 июня, пн
пн2100:00+19ююз25834 0.0 102075
03:00+17юз239121 0.0 102159
06:00+19ююз248299 0.0 1021129
09:00+25ююз235919 0.0 1021523
12:00+29ю2345100 0.0 10211518
15:00+30ююв2336100 0.0 10201865
18:00+28ю234511 0.0 1019658
21:00+22юв116616 0.0 102011
22 июня, вт
вт2200:00+19ююз24854 0.0 102079
03:00+18ю22892 0.0 102138
06:00+20ююв13835 0.0 1021109
09:00+26ююв23625 0.0 1021726
12:00+30ю24439 0.0 10201559
15:00+32юз34365 0.0 10192046
18:00+31юз34445 0.0 1019968
21:00+24ю22713 0.0 101925
23 июня, ср
ср2300:00+20ююз25774 0.0 1020104
03:00+19ююз24930 0.0 102187
06:00+22ююз25860 0.0 1021144
09:00+27ююз34610 0.0 1020659
12:00+31ююз34410 0.0 10201523
15:00+33юз34340 0.0 10192165
18:00+31зюз34451 0.0 1019829
21:00+25юз22661 0.0 101915
24 июня, чт
чт2400:00+22ю35735 0.0 102087
03:00+20юз26825 0.0 1020119
06:00+22юз25788 0.0 1020144
09:00+28юз23555 0.0 1020443
12:00+32юз234027 0.0 10201561
15:00+33зюз32341 0.0 10192278
18:00+32юз33450 0.0 1018894
21:00+25юз22680 0.0 101824